GW6607 Weather Reports


time (UTC)temp
C
wind
direction
speed
KPH
gust
KPH
rain 1hr
cm
rain 24hr
cm
rain mn
cm
humidity
%
barometer
mb
20260506135511 12 197 12.9 16.1 0.00 0.00 0.00 84 1009.1
20260506135002 12 195 12.9 17.7 0.00 0.00 0.00 83 1009.2
20260506134505 12 205 9.7 17.7 0.00 0.00 0.00 84 1009.1
20260506134005 12 203 11.3 16.1 0.00 0.00 0.00 84 1009.1
20260506133504 12 213 9.7 17.7 0.00 0.00 0.00 84 1009.0
20260506133005 12 182 11.3 17.7 0.00 0.00 0.00 84 1009.1
20260506132508 12 190 11.3 16.1 0.00 0.00 0.00 84 1009.0
20260506132005 12 204 11.3 17.7 0.00 0.00 0.00 84 1008.9
20260506131515 12 218 11.3 19.3 0.00 0.00 0.00 84 1008.9
20260506131010 12 201 12.9 19.3 0.00 0.00 0.00 84 1008.9
20260506130512 12 199 11.3 17.7 0.00 0.00 0.00 84 1008.9
20260506130014 12 193 11.3 16.1 0.00 0.00 0.00 84 1008.8
20260506125506 12 210 11.3 20.9 0.00 0.00 0.00 85 1008.9
20260506125006 12 203 11.3 20.9 0.00 0.00 0.00 85 1008.9
20260506124519 12 238 11.3 20.9 0.00 0.00 0.00 85 1008.9
20260506124009 12 200 11.3 19.3 0.00 0.00 0.00 87 1009.0
20260506123503 11 194 11.3 16.1 0.00 0.00 0.00 85 1008.9
20260506123008 11 201 11.3 17.7 0.00 0.00 0.00 86 1008.8
20260506122506 11 223 14.5 17.7 0.00 0.00 0.00 86 1008.9
20260506122003 11 199 11.3 14.5 0.00 0.00 0.00 86 1009.0
20260506121505 11 218 8.0 11.3 0.00 0.00 0.00 86 1009.2
20260506121004 11 209 8.0 11.3 0.00 0.00 0.00 86 1009.1
20260506120504 11 199 6.4 9.7 0.00 0.00 0.00 86 1009.3
20260506120012 11 210 4.8 9.7 0.00 0.00 0.00 87 1009.2
20260506115507 11 182 8.0 9.7 0.00 0.00 0.00 86 1009.0
20260506115008 11 190 4.8 9.7 0.00 0.00 0.00 87 1009.4
20260506114515 11 198 6.4 11.3 0.00 0.00 0.00 87 1009.4
20260506114009 11 206 8.0 11.3 0.00 0.00 0.00 87 1009.4
20260506113509 11 204 3.2 6.4 0.00 0.00 0.00 87 1009.5
20260506113022 11 182 0.0 6.4 0.00 0.00 0.00 88 1009.7
20260506112512 10 191 1.6 6.4 0.00 0.00 0.00 88 1009.7
20260506112003 10 195 0.0 3.2 0.00 0.00 0.00 87 1009.3
20260506111506 10 195 0.0 4.8 0.00 0.00 0.00 87 1009.3
20260506111003 10 193 3.2 4.8 0.00 0.00 0.00 87 1009.6
20260506110504 10 176 3.2 4.8 0.00 0.00 0.00 87 1009.4
20260506110011 10 221 1.6 3.2 0.00 0.00 0.00 88 1009.3
20260506105504 10 189 1.6 4.8 0.00 0.00 0.00 87 1009.2
20260506105011 10 196 1.6 4.8 0.00 0.00 0.00 87 1009.4
20260506104515 10 205 0.0 8.0 0.00 0.00 0.00 87 1009.5
20260506104012 10 223 0.0 8.0 0.00 0.00 0.00 88 1009.3
20260506103504 10 211 3.2 8.0 0.00 0.00 0.00 87 1009.3
20260506103016 10 198 1.6 4.8 0.00 0.00 0.00 87 1009.3
20260506102508 10 203 1.6 4.8 0.00 0.00 0.00 88 1009.6
20260506102011 9 222 1.6 4.8 0.00 0.00 0.00 87 1009.5
20260506101519 9 197 0.0 6.4 0.00 0.00 0.00 87 1009.4
20260506101006 9 196 0.0 6.4 0.00 0.00 0.00 87 1009.2
20260506100503 9 165 3.2 4.8 0.00 0.00 0.00 87 1009.3
20260506100006 9 195 0.0 3.2 0.00 0.00 0.00 87 1009.4
20260506095503 9 261 0.0 3.2 0.00 0.00 0.00 87 1009.4
20260506095011 9 275 0.0 3.2 0.00 0.00 0.00 87 1009.5
20260506094512 9 275 0.0 3.2 0.00 0.00 0.00 87 1009.4
20260506094005 8 274 0.0 3.2 0.00 0.00 0.00 87 1009.4
20260506093503 8 255 0.0 0.0 0.00 0.00 0.00 86 1009.3
20260506093018 8 255 0.0 3.2 0.00 0.00 0.00 86 1009.2
20260506092507 8 255 0.0 3.2 0.00 0.00 0.00 86 1009.2
20260506092010 9 255 0.0 3.2 0.00 0.00 0.00 86 1009.3
20260506091518 8 155 0.0 3.2 0.00 0.00 0.00 87 1009.2
20260506091010 8 170 0.0 3.2 0.00 0.00 0.00 86 1009.2
20260506090509 8 215 0.0 3.2 0.00 0.00 0.00 85 1009.2
20260506090025 8 252 0.0 4.8 0.00 0.00 0.00 85 1009.1
20260506085503 9 174 0.0 4.8 0.00 0.00 0.00 85 1009.2
20260506085003 9 188 3.2 4.8 0.00 0.00 0.00 85 1009.1
20260506084509 9 224 1.6 6.4 0.00 0.00 0.00 86 1009.0
20260506084006 9 209 3.2 6.4 0.00 0.00 0.00 85 1009.1
20260506083504 9 214 4.8 6.4 0.00 0.00 0.00 85 1009.0
20260506083017 9 218 3.2 6.4 0.00 0.00 0.00 84 1008.9
20260506082506 9 203 3.2 6.4 0.00 0.00 0.00 83 1008.9
20260506082009 10 203 1.6 4.8 0.00 0.00 0.00 83 1008.9
20260506081515 10 216 3.2 4.8 0.00 0.00 0.00 83 1009.1
20260506081011 10 200 3.2 6.4 0.00 0.00 0.00 82 1009.1
20260506080506 10 209 3.2 6.4 0.00 0.00 0.00 82 1009.0
20260506073509 11 219 3.2 8.0 0.00 0.00 0.00 84 1008.8
20260506073010 10 203 3.2 8.0 0.00 0.00 0.00 86 1008.8
20260506072508 10 205 3.2 8.0 0.00 0.00 0.00 84 1008.6
20260506072009 10 226 3.2 6.4 0.00 0.00 0.00 85 1008.5
20260506071518 10 198 1.6 9.7 0.00 0.00 0.00 85 1008.5
20260506071007 10 232 4.8 9.7 0.00 0.00 0.00 86 1008.5
20260506070505 9 207 3.2 8.0 0.00 0.00 0.00 84 1008.5
20260506062506 10 207 4.8 11.3 0.00 0.00 0.00 84 1008.4
20260506062007 10 200 6.4 11.3 0.00 0.00 0.00 83 1008.5
20260506061512 10 187 6.4 9.7 0.00 0.00 0.00 83 1008.5
20260506061007 10 211 4.8 11.3 0.00 0.00 0.00 82 1008.5
20260506060507 10 159 6.4 11.3 0.00 0.00 0.00 81 1008.5
20260506051003 11 211 3.2 8.0 0.00 0.00 0.00 79 1008.6
20260506050503 12 217 4.8 11.3 0.00 0.00 0.00 77 1008.6
20260506045008 11 222 4.8 9.7 0.00 0.00 0.00 85 1008.6
20260506044520 10 227 1.6 9.7 0.00 0.00 0.00 83 1008.7
20260506044007 10 238 1.6 11.3 0.00 0.00 0.00 83 1008.7
20260506043508 10 188 8.0 11.3 0.00 0.00 0.00 82 1008.6
20260506043023 10 207 1.6 6.4 0.00 0.00 0.00 83 1008.5
20260506042503 10 181 3.2 6.4 0.00 0.00 0.00 83 1008.6
20260506042004 10 259 0.0 9.7 0.00 0.00 0.00 83 1008.7
20260506041507 10 222 1.6 9.7 0.00 0.00 0.00 82 1008.6
20260506041004 10 203 1.6 9.7 0.00 0.00 0.00 82 1008.7
20260506040503 10 174 6.4 9.7 0.00 0.00 0.00 81 1008.7
20260506040013 10 159 4.8 6.4 0.00 0.00 0.00 81 1008.6
20260506035506 10 204 1.6 6.4 0.00 0.00 0.00 81 1008.6
20260506035007 10 186 3.2 6.4 0.00 0.00 0.00 80 1008.6
20260506034528 11 145 1.6 6.4 0.00 0.00 0.00 79 1008.6
20260506034013 11 150 1.6 8.0 0.00 0.00 0.00 79 1008.5
20260506033511 11 217 0.0 9.7 0.00 0.00 0.00 80 1008.5
20260506033023 11 228 3.2 9.7 0.00 0.00 0.00 80 1008.5
20260506032508 11 190 4.8 11.3 0.00 0.00 0.00 79 1008.5
20260506032008 11 215 6.4 11.3 0.00 0.00 0.00 80 1008.4
20260506031524 11 230 3.2 9.7 0.00 0.00 0.00 79 1008.3
20260506031004 11 211 4.8 11.3 0.00 0.00 0.00 78 1008.3
20260506030507 12 196 3.2 11.3 0.00 0.00 0.00 79 1008.2
20260506030010 11 217 3.2 9.7 0.00 0.00 0.00 80 1008.5
20260506025509 11 216 3.2 8.0 0.00 0.00 0.00 80 1008.5
20260506025007 11 183 3.2 8.0 0.00 0.00 0.00 78 1008.5
20260506024515 11 201 1.6 6.4 0.00 0.00 0.00 77 1008.4
20260506024007 11 225 1.6 6.4 0.00 0.00 0.00 76 1008.5
20260506023508 12 204 3.2 8.0 0.00 0.00 0.00 77 1008.5
20260506023022 11 238 3.2 8.0 0.00 0.00 0.00 77 1008.5
20260506022507 11 228 3.2 8.0 0.00 0.00 0.00 76 1008.4
20260506022008 12 203 1.6 8.0 0.00 0.00 0.00 76 1008.3
20260506021524 12 207 1.6 8.0 0.00 0.00 0.00 76 1008.6
20260506021007 12 194 3.2 8.0 0.00 0.00 0.00 76 1008.7
20260506020514 12 199 0.0 9.7 0.00 0.00 0.00 75 1008.7
20260506020026 12 177 4.8 9.7 0.00 0.00 0.00 76 1008.6
20260506015505 12 219 4.8 9.7 0.00 0.00 0.00 75 1008.6
20260506015007 12 205 4.8 6.4 0.00 0.00 0.00 74 1008.6
20260506014511 12 207 1.6 8.0 0.00 0.00 0.00 76 1008.6
20260506014005 12 228 1.6 8.0 0.00 0.00 0.00 74 1008.8
20260506013506 12 200 4.8 9.7 0.00 0.00 0.00 74 1008.7
20260506013034 12 260 1.6 9.7 0.00 0.00 0.00 74 1008.6
20260506012507 12 197 4.8 8.0 0.00 0.00 0.00 73 1008.5
20260506012010 13 191 3.2 6.4 0.00 0.00 0.00 72 1008.4
20260506011525 13 192 1.6 6.4 0.00 0.00 0.00 73 1008.2
20260506011008 13 200 3.2 9.7 0.00 0.00 0.00 72 1008.2
20260506010508 13 202 4.8 11.3 0.00 0.00 0.00 74 1008.2
20260506010027 13 199 4.8 11.3 0.00 0.00 0.00 74 1008.2
20260506005507 12 205 3.2 9.7 0.00 0.00 0.00 75 1008.2
20260506005010 12 215 6.4 9.7 0.00 0.00 0.00 73 1008.1
20260506004526 13 204 3.2 6.4 0.00 0.00 0.00 71 1008.1
20260506004003 13 234 0.0 9.7 0.00 0.00 0.00 73 1008.2
20260506003509 13 213 4.8 9.7 0.00 0.00 0.00 71 1008.1
20260506003016 13 215 3.2 8.0 0.00 0.00 0.00 70 1008.1
20260506002504 13 226 1.6 14.5 0.00 0.00 0.00 69 1008.0
20260506002009 14 248 1.6 14.5 0.00 0.00 0.00 69 1007.9
20260506001520 14 255 6.4 14.5 0.00 0.00 0.00 71 1007.7
20260506001009 13 203 4.8 12.9 0.00 0.00 0.00 70 1007.5
20260506000510 14 219 4.8 12.9 0.00 0.00 0.00 67 1007.4
20260506000020 15 203 9.7 12.9 0.00 0.00 0.00 63 1007.1
20260505235509 16 213 6.4 11.3 0.00 0.00 0.00 63 1007.1
20260505235012 17 193 4.8 11.3 0.00 0.00 0.00 63 1007.0
20260505234526 17 236 4.8 11.3 0.00 0.00 0.00 61 1007.0
20260505234007 18 216 1.6 8.0 0.00 0.00 0.00 60 1006.8
20260505233506 18 242 4.8 8.0 0.00 0.00 0.00 59 1006.9
20260505233016 18 210 1.6 6.4 0.00 0.00 0.00 59 1006.8
20260505232507 18 237 0.0 11.3 0.00 0.00 0.00 60 1006.9
20260505232007 18 245 3.2 17.7 0.00 0.00 0.00 61 1006.9
20260505231518 17 331 4.8 20.9 0.00 0.00 0.00 62 1006.8
20260505231005 17 311 8.0 20.9 0.00 0.00 0.00 64 1006.9
20260505230509 16 193 9.7 27.4 0.00 0.00 0.00 67 1007.2
20260505230020 15 61 8.0 32.2 0.00 0.00 0.00 67 1005.9
20260505225506 15 167 17.7 32.2 0.00 0.00 0.00 67 1005.4
20260505225007 15 156 16.1 37.0 0.00 0.00 0.00 66 1005.3
20260505224524 15 258 19.3 37.0 0.00 0.00 0.00 66 1005.2
20260505224011 15 224 19.3 35.4 0.00 0.00 0.00 66 1005.1
20260505223508 16 184 20.9 35.4 0.00 0.00 0.00 66 1005.0
20260505223036 16 215 22.5 40.2 0.00 0.00 0.00 66 1005.1
20260505222512 15 209 20.9 40.2 0.00 0.00 0.00 66 1004.9
20260505222011 15 221 19.3 37.0 0.00 0.00 0.00 67 1004.8
20260505221514 15 228 20.9 37.0 0.00 0.00 0.00 67 1004.9
20260505221010 15 289 17.7 40.2 0.00 0.00 0.00 67 1004.8
20260505220506 15 198 19.3 40.2 0.00 0.00 0.00 67 1004.7
20260505220031 15 203 19.3 38.6 0.00 0.00 0.00 68 1004.7
20260505215508 15 184 19.3 38.6 0.00 0.00 0.00 68 1004.6
20260505215007 15 192 22.5 38.6 0.00 0.00 0.00 67 1004.6
20260505214532 15 148 22.5 38.6 0.00 0.00 0.00 67 1004.7
20260505214007 16 207 27.4 41.8 0.00 0.00 0.00 65 1004.8
20260505213514 16 171 27.4 45.1 0.00 0.00 0.00 65 1004.7
20260505213024 16 219 25.7 45.1 0.00 0.00 0.00 65 1004.9
20260505212509 16 191 20.9 43.5 0.00 0.00 0.00 65 1004.6
20260505212012 16 210 22.5 43.5 0.00 0.00 0.00 65 1004.6
20260505211528 16 207 19.3 38.6 0.00 0.00 0.00 64 1004.5
20260505211007 16 207 20.9 37.0 0.00 0.00 0.00 64 1004.7
20260505210510 16 190 19.3 35.4 0.00 0.00 0.00 64 1004.6
20260505210019 16 224 24.1 35.4 0.00 0.00 0.00 64 1004.6
20260505205511 16 210 19.3 35.4 0.00 0.00 0.00 65 1004.6
20260505205008 16 220 20.9 38.6 0.00 0.00 0.00 66 1004.4
20260505204523 16 210 22.5 38.6 0.00 0.00 0.00 66 1004.4
20260505204008 16 173 22.5 33.8 0.00 0.00 0.00 66 1004.5
20260505203507 16 219 24.1 45.1 0.00 0.00 0.00 67 1004.7
20260505203004 16 199 22.5 45.1 0.00 0.00 0.00 67 1004.7
20260505202504 16 194 25.7 35.4 0.00 0.00 0.00 67 1004.7
20260505202004 16 195 24.1 35.4 0.00 0.00 0.00 67 1004.6
20260505201510 16 213 24.1 35.4 0.00 0.00 0.00 68 1004.6
20260505201004 15 181 24.1 35.4 0.00 0.00 0.00 67 1004.6
20260505200504 16 181 24.1 35.4 0.00 0.00 0.00 67 1004.8
20260505200016 16 185 24.1 35.4 0.00 0.00 0.00 67 1004.9
20260505195504 16 182 24.1 40.2 0.00 0.00 0.00 66 1005.0
20260505195003 16 201 27.4 38.6 0.00 0.00 0.00 66 1005.1
20260505194511 16 187 22.5 33.8 0.00 0.00 0.00 65 1005.2
20260505194007 16 186 20.9 33.8 0.00 0.00 0.00 66 1005.2
20260505193504 16 182 20.9 32.2 0.00 0.00 0.00 67 1005.2
20260505193005 16 188 20.9 32.2 0.00 0.00 0.00 68 1005.2
20260505192503 15 190 20.9 30.6 0.00 0.00 0.00 69 1005.4
20260505192005 15 190 20.9 27.4 0.00 0.00 0.00 69 1005.5
20260505191521 15 195 19.3 27.4 0.00 0.00 0.00 68 1005.7
20260505191003 15 203 17.7 27.4 0.00 0.00 0.00 70 1005.8
20260505190504 15 217 16.1 27.4 0.00 0.00 0.00 71 1005.9
20260505190012 13 197 16.1 27.4 0.00 0.00 0.00 73 1006.3
20260505185507 13 188 17.7 27.4 0.00 0.00 0.00 73 1006.3
20260505185004 13 194 20.9 30.6 0.00 0.00 0.00 73 1006.4
20260505184512 13 161 22.5 30.6 0.00 0.00 0.00 73 1006.5
20260505184008 13 197 22.5 29.0 0.00 0.00 0.00 72 1006.5
20260505183503 14 201 20.9 29.0 0.00 0.00 0.00 71 1006.5
20260505183012 14 183 19.3 27.4 0.00 0.00 0.00 71 1006.4
20260505182510 14 195 19.3 25.7 0.00 0.00 0.00 71 1006.4
20260505182002 14 206 17.7 25.7 0.00 0.00 0.00 71 1006.4
20260505181504 14 188 17.7 24.1 0.00 0.00 0.00 73 1006.5
20260505181005 13 197 17.7 29.0 0.00 0.00 0.00 74 1006.4
20260505180503 13 190 20.9 29.0 0.00 0.00 0.00 74 1006.5
20260505180007 13 183 22.5 29.0 0.00 0.00 0.00 73 1006.5
20260505175506 13 224 20.9 27.4 0.00 0.00 0.00 73 1006.5
20260505175007 13 189 20.9 29.0 0.00 0.00 0.00 72 1006.6
20260505174514 13 171 20.9 29.0 0.00 0.00 0.00 73 1006.6
20260505174008 13 190 22.5 27.4 0.00 0.00 0.00 73 1006.7
20260505173508 13 165 19.3 30.6 0.00 0.00 0.00 74 1006.7
20260505173014 13 197 20.9 30.6 0.00 0.00 0.00 74 1006.7
20260505172506 13 214 20.9 30.6 0.00 0.00 0.00 73 1006.8
20260505172009 13 190 19.3 30.6 0.00 0.00 0.00 73 1006.9
20260505171514 13 194 22.5 29.0 0.00 0.00 0.00 72 1006.8
20260505171007 13 178 19.3 27.4 0.00 0.00 0.00 72 1006.9
20260505170505 13 209 20.9 27.4 0.00 0.00 0.00 72 1007.0
20260505170006 13 190 17.7 25.7 0.00 0.00 0.00 73 1007.3
20260505165503 13 194 17.7 22.5 0.00 0.00 0.00 72 1007.3
20260505165007 14 190 16.1 29.0 0.00 0.00 0.00 72 1007.3
20260505164511 13 199 19.3 29.0 0.00 0.00 0.00 75 1007.3
20260505164008 13 188 20.9 29.0 0.00 0.00 0.00 75 1007.2
20260505163504 13 184 16.1 25.7 0.00 0.00 0.00 75 1007.1
20260505163018 13 192 16.1 25.7 0.00 0.00 0.00 75 1007.3
20260505162511 13 180 17.7 24.1 0.00 0.00 0.00 75 1007.5
20260505162007 13 167 17.7 24.1 0.00 0.00 0.00 74 1007.7
20260505161534 13 192 17.7 24.1 0.00 0.00 0.00 74 1007.9
20260505161005 13 191 16.1 24.1 0.00 0.00 0.00 74 1007.9
20260505160508 13 185 16.1 25.7 0.00 0.00 0.00 76 1008.1
20260505153017 13 153 12.9 24.1 0.00 0.00 0.00 78 1008.3
20260505152506 12 153 16.1 24.1 0.00 0.00 0.00 77 1008.4
20260505152012 13 155 14.5 20.9 0.00 0.00 0.00 75 1008.3
20260505151519 13 200 9.7 19.3 0.00 0.00 0.00 76 1008.4
20260505151011 13 169 11.3 27.4 0.00 0.00 0.00 76 1008.5
20260505150508 13 201 14.5 27.4 0.00 0.00 0.00 77 1008.5
20260505140508 12 187 19.3 29.0 0.00 0.00 0.00 78 1008.0